User: anonymous   Login
Location: Marsån
(66.4167°N, 22.2833°E)
Time: 00:43:39
(UTC+00:00)
Language:

SL-08 ROCKET BODY - Orbit

View from above orbital plane
View from above orbital plane
View from above satellite
View from above satellite

Ground track
Ground track

The orbit data is extracted from the following two-line orbital elements,

1 28522U 05002B   24144.59765342  .00000188  00000-0  13958-3 0  9998
2 28522  82.9476 234.8298 0044527 228.8535 130.8784 13.89828275980762
Epoch (UTC): 23 May 2024 14:20:37
Eccentricity: 0.0044527
inclination: 82.9476°
perigee height: 896 km
apogee height: 962 km
right ascension of ascending node: 234.8298°
argument of perigee: 228.8535°
revolutions per day: 13.89828275
mean anomaly at epoch: 130.8784°
orbit number at epoch: 98076

The dashed part of the orbit path shows where the satellite is in the earth's shadow,  

DLR